Regional Weather Roundup
Issued by NWS

Home | Current Version | Previous Version | Text Only | Print | Product List | Glossary Off
Versions: 1 2 3 4 5 6 7 8 9 10 11 12 13 14 15 16 17 18 19 20 21 22 23 24 25 26 27 28 29 30 31 32 33 34 35 36 37 38 39 40 41 42 43 44 45 46 47 48 49 50

000
ASUS43 KTOP 302108
RWRKS

WEATHER ROUNDUP FOR KANSAS
NATIONAL WEATHER SERVICE GOODLAND KS
400 PM CDT TUE SEP 30 2014

NOTE:  "FAIR" INDICATES FEW OR NO CLOUDS BELOW 12,000 FEET WITH NO
SIGNIFICANT WEATHER AND/OR OBSTRUCTIONS TO VISIBILITY.

KSZ001>006-013>018-027>032-041>047-302200-
NORTHWEST KANSAS

CITY           SKY/WX    TMP DP  RH WIND       PRES   REMARKS
GOODLAND       SUNNY     72  41  32 S7        29.77F
HAYS           SUNNY     81  61  50 SW14      29.71F
HILL CITY      SUNNY     77  54  44 S3        29.73F
RUSSELL        PTSUNNY   76  65  68 SE7       29.70F
$$

KSZ061>065-074>080-084>089-302200-
SOUTHWEST KANSAS

CITY           SKY/WX    TMP DP  RH WIND       PRES   REMARKS
DODGE CITY     MOSUNNY   84  51  31 SW15G24   29.71F
GARDEN CITY    MOSUNNY   78  54  43 W10       29.73F
GREAT BEND     SUNNY     82  61  47 S18       29.69F
LIBERAL        SUNNY     82  45  26 SW3       29.74F
PRATT          MOSUNNY   82  54  36 S21G28    29.72F
$$

KSZ066>073-081>083-090>101-302200-
SOUTHEAST KANSAS

CITY           SKY/WX    TMP DP  RH WIND       PRES   REMARKS
CHANUTE        SUNNY     83  61  47 S16       29.80F
COFFEYVILLE    MOSUNNY   84  63  49 SE15      29.79F
HUTCHINSON     MOSUNNY   87  57  35 S23G33    29.72F
MEDICINE LODGE   N/A     86  59  39 S22G29    29.70F
NEWTON         PTSUNNY   84  59  42 S20G25    29.77F
PARSONS        MOSUNNY   84  62  47 S12G21    29.81F
WICHITA INTL   PTSUNNY   88  58  36 S21G28    29.73F
WICHITA JABRA  CLOUDY    83  58  42 S20       29.75F
WICHITA MCCONL PTSUNNY   83  58  41 SE16G24   29.75F
WINFIELD       PTSUNNY   85  61  44 SE20      29.77F
$$

KSZ007>012-019>026-033>040-048>060-102>105-302200-
NORTHEAST KANSAS

CITY           SKY/WX    TMP DP  RH WIND       PRES   REMARKS
CONCORDIA      CLOUDY    70  67  90 CALM      29.75S
EMPORIA        PTSUNNY   82  62  50 S15       29.78F
LAWRENCE       MOSUNNY   83  58  42 SE18      29.79F
MANHATTAN      CLOUDY    84  60  44 S17G23    29.73F
MARYSVILLE     CLOUDY    68  64  88 E5        29.75F
OLATHE IND     MOSUNNY   82  58  43 S13G23    29.82F
OLATHE EXE     MOSUNNY   82  58  43 S16G23    29.81F
SALINA         LGT RAIN  80  63  55 S15G25    29.71F
TOPEKA BILLARD MOSUNNY   85  57  38 S16       29.77F
TOPEKA FORBES  LGT RAIN  86  56  35 S15G28    29.77F
$$


USA.gov is the U.S. government's official web portal to all federal, state and local government web resources and services.